�N����,����,����,����,����,�C��,���x,�~����,�S�V����,�ő�u�ԕ���,,,
,,,,,,,,,����,����,����,�N��
yyyy/mm/dd,hh:mm:ss,-16,16����,m/s,��,%,mm,KW/�u,-16,16����,m/s,Time
2018/11/1,1:00:00,14,�k��,1.6,2.6,89,0,0,14,�k��,5.8,4
2018/11/1,2:00:00,13,���k��,2.7,2.1,90.8,0,0,13,���k��,4.6,36
2018/11/1,3:00:00,13,���k��,3.3,1.7,94.1,0,0,13,���k��,6.8,27
2018/11/1,4:00:00,13,���k��,2.8,1.2,92.8,0,0,14,�k��,5,27
2018/11/1,5:00:00,14,�k��,0.7,0.4,90,0,0,15,�k�k��,7.2,52
2018/11/1,6:00:00,15,�k�k��,0.8,-1.9,97,0,0,15,�k�k��,2.1,16
2018/11/1,7:00:00,13,���k��,2,0.4,95.1,0,0.09,13,���k��,2.4,54
2018/11/1,8:00:00,14,�k��,2,4.8,75.5,0,0.27,14,�k��,3.3,53
2018/11/1,9:00:00,14,�k��,1.8,8.8,66.2,0,0.45,14,�k��,3.6,0
2018/11/1,10:00:00,13,���k��,1.8,10.6,61.1,0,0.57,14,�k��,4.4,47
2018/11/1,11:00:00,6,�쓌,2.5,11.5,59.5,0,0.63,6,�쓌,4.6,30
2018/11/1,12:00:00,7,��쓌,2.7,11.3,55.1,0,0.65,6,�쓌,5.4,26
2018/11/1,13:00:00,7,��쓌,3.6,11.3,61.6,0,0.59,8,��,5.5,51
2018/11/1,14:00:00,8,��,3.1,10.1,63.3,0,0.47,7,��쓌,5.9,19
2018/11/1,15:00:00,8,��,2.2,10.5,69.5,0,0.28,8,��,6,17
2018/11/1,16:00:00,10,�쐼,0.9,8.6,79.7,0,0.09,8,��,4.6,24
2018/11/1,17:00:00,13,���k��,2.2,7.4,82.1,0,0.01,14,�k��,4.1,57
2018/11/1,18:00:00,13,���k��,3,6.7,75.2,0,0,14,�k��,5.6,35
2018/11/1,19:00:00,14,�k��,3.3,6.7,74.2,0,0,14,�k��,5.4,43
2018/11/1,20:00:00,14,�k��,3.6,6.9,73.3,0,0,13,���k��,5.7,39
2018/11/1,21:00:00,14,�k��,3.2,6.3,73.3,0,0,14,�k��,5.8,40
2018/11/1,22:00:00,13,���k��,2.6,2.7,87.2,0,0,14,�k��,5.2,8
2018/11/1,23:00:00,12,��,2.5,0.9,94.7,0,0,13,���k��,3.8,59
2018/11/1,0:00:00,16,�É�,0.1,1.4,88.5,0,0,12,��,3.8,28
2018/11/2,1:00:00,12,��,1.7,-0.9,96.8,0,0,12,��,2.3,0
2018/11/2,2:00:00,13,���k��,2.3,-1.7,99.1,0,0,13,���k��,3,51
2018/11/2,3:00:00,13,���k��,2.9,-1.3,99,0,0,13,���k��,3.4,59
2018/11/2,4:00:00,13,���k��,2.5,-0.6,98.7,0,0,13,���k��,4.2,25
2018/11/2,5:00:00,13,���k��,2.1,-0.6,97.3,0,0,14,�k��,3.4,8
2018/11/2,6:00:00,13,���k��,1.9,-0.9,96.5,0,0,13,���k��,3.6,16
2018/11/2,7:00:00,12,��,1.7,0.9,93.1,0,0.09,13,���k��,3.2,42
2018/11/2,8:00:00,13,���k��,1.6,5.4,77.2,0,0.27,13,���k��,3.4,12
2018/11/2,9:00:00,14,�k��,1.7,9.4,70,0,0.45,14,�k��,3.9,14
2018/11/2,10:00:00,5,���쓌,0.4,11.3,61.9,0,0.57,13,���k��,2.2,0
2018/11/2,11:00:00,7,��쓌,2.4,12.5,58.6,0,0.63,6,�쓌,4,39
2018/11/2,12:00:00,6,�쓌,2.9,11.9,53,0,0.65,6,�쓌,4.6,52
2018/11/2,13:00:00,7,��쓌,3,11.9,57.1,0,0.6,8,��,5,19
2018/11/2,14:00:00,7,��쓌,2.5,11.4,58.3,0,0.49,7,��쓌,5,13
2018/11/2,15:00:00,8,��,2.9,10.7,60.8,0,0.33,7,��쓌,5.4,41
2018/11/2,16:00:00,9,��쐼,1.4,9.1,69,0,0.14,8,��,3.9,0
2018/11/2,17:00:00,10,�쐼,1,5.8,81.5,0,0.01,10,�쐼,2.6,31
2018/11/2,18:00:00,12,��,1.4,3.8,92.6,0,0,12,��,1.9,54
2018/11/2,19:00:00,13,���k��,2.4,1.1,96.7,0,0,13,���k��,2.9,59
2018/11/2,20:00:00,13,���k��,3,1.3,97.5,0,0,13,���k��,4,56
2018/11/2,21:00:00,13,���k��,2.8,0.5,98.4,0,0,13,���k��,3.6,0
2018/11/2,22:00:00,13,���k��,2.3,0.2,99.4,0,0,13,���k��,3.1,0
2018/11/2,23:00:00,13,���k��,1.8,-0.5,99.8,0,0,13,���k��,2.7,7
2018/11/2,0:00:00,13,���k��,2.1,0.9,99.6,0,0,14,�k��,3.1,58
2018/11/3,1:00:00,14,�k��,1.9,2.2,96.1,0,0,14,�k��,3.8,56
2018/11/3,2:00:00,14,�k��,2.3,2.8,94.3,0,0,14,�k��,4.5,59
2018/11/3,3:00:00,14,�k��,2.8,2.6,93.6,0,0,14,�k��,4.7,35
2018/11/3,4:00:00,14,�k��,2.8,2.6,92.7,0,0,14,�k��,4.7,32
2018/11/3,5:00:00,13,���k��,2.1,1.7,94.2,0,0,14,�k��,4.2,0
2018/11/3,6:00:00,13,���k��,2.6,1.1,95.6,0,0,14,�k��,4.2,38
2018/11/3,7:00:00,13,���k��,2.5,1.4,94.4,0,0.08,14,�k��,4.2,35
2018/11/3,8:00:00,13,���k��,2.4,5.6,83.9,0,0.27,13,���k��,4.1,1
2018/11/3,9:00:00,13,���k��,1.3,9.8,75.5,0,0.44,13,���k��,2.8,0
2018/11/3,10:00:00,6,�쓌,1.6,12.5,70.2,0,0.57,5,���쓌,3.3,53
2018/11/3,11:00:00,7,��쓌,1.9,12.6,68.1,0,0.63,8,��,4.2,58
2018/11/3,12:00:00,7,��쓌,2.6,12.1,67.1,0,0.64,6,�쓌,4.1,49
2018/11/3,13:00:00,6,�쓌,2.2,12.5,69.5,0,0.6,6,�쓌,4.3,5
2018/11/3,14:00:00,7,��쓌,2.4,12.2,72.1,0,0.49,6,�쓌,3.4,43
2018/11/3,15:00:00,8,��,2,11.6,79.1,0,0.33,7,��쓌,3.2,49
2018/11/3,16:00:00,8,��,0.4,9.7,86.8,0,0.14,7,��쓌,3.1,3
2018/11/3,17:00:00,13,���k��,0.7,5.7,98.3,0,0.01,10,�쐼,1.7,6
2018/11/3,18:00:00,13,���k��,1.2,2.2,99.3,0,0,13,���k��,2,29
2018/11/3,19:00:00,14,�k��,2.2,2.8,100,0,0,14,�k��,3.2,57
2018/11/3,20:00:00,12,��,1.9,2.5,100,0,0,14,�k��,3,6
2018/11/3,21:00:00,13,���k��,2.1,2.2,100,0,0,13,���k��,3.4,37
2018/11/3,22:00:00,13,���k��,3,1.9,100,0,0,13,���k��,4.1,49
2018/11/3,23:00:00,13,���k��,3.1,2.1,100,0,0,13,���k��,4.2,48
2018/11/3,0:00:00,13,���k��,2,1.6,100,0,0,13,���k��,3.6,36
2018/11/4,1:00:00,13,���k��,2.9,1.4,99,0,0,13,���k��,4,55
2018/11/4,2:00:00,13,���k��,2.6,1,98.5,0,0,13,���k��,4.1,37
2018/11/4,3:00:00,13,���k��,2.4,0.2,97.3,0,0,13,���k��,4,0
2018/11/4,4:00:00,13,���k��,3.5,0.5,95.8,0,0,13,���k��,4.9,54
2018/11/4,5:00:00,13,���k��,2.3,-0.4,95.3,0,0,13,���k��,4.6,40
2018/11/4,6:00:00,13,���k��,2.3,-0.4,95.2,0,0,13,���k��,3.9,32
2018/11/4,7:00:00,12,��,3.4,1.4,93.6,0,0.08,12,��,4.3,56
2018/11/4,8:00:00,13,���k��,1.7,8,84,0,0.27,13,���k��,3.8,3
2018/11/4,9:00:00,13,���k��,1.8,12.7,62.4,0,0.45,13,���k��,3.2,51
2018/11/4,10:00:00,8,��,1,16.9,36.3,0,0.58,7,��쓌,2.8,58
2018/11/4,11:00:00,6,�쓌,2.5,15.5,51.5,0,0.64,5,���쓌,3.6,53
2018/11/4,12:00:00,4,��,2.3,18,38.9,0,0.65,4,��,3.5,42
2018/11/4,13:00:00,4,��,2.2,18.2,37.5,0,0.6,3,���k��,3.8,42
2018/11/4,14:00:00,4,��,2.2,18,42.5,0,0.49,4,��,4,3
2018/11/4,15:00:00,3,���k��,1,17.6,45.8,0,0.32,4,��,3,9
2018/11/4,16:00:00,16,�É�,0.1,12,56.8,0,0.13,1,�k�k��,2.4,3
2018/11/4,17:00:00,11,���쐼,0.6,8.5,64.1,0,0.01,13,���k��,2.5,6
2018/11/4,18:00:00,12,��,1.6,7.7,85.5,0,0,12,��,2.2,57
2018/11/4,19:00:00,13,���k��,2.3,5.4,86.1,0,0,13,���k��,2.5,50
2018/11/4,20:00:00,12,��,2,4.8,91.7,0,0,13,���k��,2.9,43
2018/11/4,21:00:00,13,���k��,2.6,4,89.7,0,0,13,���k��,3.4,59
2018/11/4,22:00:00,14,�k��,2.6,6.3,90.6,0,0,13,���k��,4.3,55
2018/11/4,23:00:00,16,�É�,0.2,4.6,86.4,0,0,3,���k��,3.6,54
2018/11/4,0:00:00,13,���k��,1.4,1.3,96,0,0,1,�k�k��,2.8,40
2018/11/5,1:00:00,13,���k��,1.2,2.5,96.3,0,0,13,���k��,2.6,3
2018/11/5,2:00:00,12,��,2.5,2.6,96.8,0,0,12,��,3.2,56
2018/11/5,3:00:00,13,���k��,2.4,2.4,97,0,0,13,���k��,3.1,51
2018/11/5,4:00:00,13,���k��,1.9,3.8,97,0,0,14,�k��,4.1,8
2018/11/5,5:00:00,14,�k��,1.8,2.6,96.9,0,0,14,�k��,3,5
2018/11/5,6:00:00,13,���k��,1.8,1.5,99,0,0,13,���k��,2.8,45
2018/11/5,7:00:00,12,��,2.1,3.6,99.7,0,0.03,13,���k��,2.8,22
2018/11/5,8:00:00,13,���k��,2.2,5.8,94.1,0,0.05,13,���k��,3.1,50
2018/11/5,9:00:00,14,�k��,1.6,7.9,92.4,0,0.07,14,�k��,2.8,54
2018/11/5,10:00:00,13,���k��,0.7,9.8,88.9,0,0.14,12,��,2.5,36
2018/11/5,11:00:00,4,��,2.2,11,84.3,0,0.23,4,��,3.3,58
2018/11/5,12:00:00,4,��,2.7,10.8,85.6,0,0.19,5,���쓌,3.8,12
2018/11/5,13:00:00,4,��,1.7,11.2,85.9,0,0.2,3,���k��,3.6,18
2018/11/5,14:00:00,5,���쓌,1.4,11.1,89.6,0,0.15,4,��,3.7,5
2018/11/5,15:00:00,6,�쓌,1.9,11,89.4,0,0.12,6,�쓌,3.4,47
2018/11/5,16:00:00,16,�É�,0.1,10.6,92.6,0,0.04,6,�쓌,2.8,3
2018/11/5,17:00:00,16,�k,0.4,9.9,94.8,0,0,13,���k��,1.1,57
2018/11/5,18:00:00,15,�k�k��,0.4,9.6,96.5,0,0,4,��,1.6,24
2018/11/5,19:00:00,14,�k��,0.4,9.7,97.6,0,0,11,���쐼,1.5,54
2018/11/5,20:00:00,12,��,0.9,9.9,96.5,0,0,9,��쐼,2.1,42
2018/11/5,21:00:00,14,�k��,0.6,9.8,97.1,0,0,11,���쐼,2,19
2018/11/5,22:00:00,6,�쓌,1.2,11.1,94.4,0,0,7,��쓌,3,30
2018/11/5,23:00:00,8,��,1.2,10.8,95.2,0,0,8,��,3.9,40
2018/11/5,0:00:00,16,�É�,0,10.2,97.4,0,0,8,��,2.9,0
2018/11/6,1:00:00,11,���쐼,1.4,9.8,98.5,0,0,11,���쐼,2,54
2018/11/6,2:00:00,14,�k��,0.8,9.6,97.1,0,0,13,���k��,2.6,40
2018/11/6,3:00:00,14,�k��,1.3,5.9,97.4,0,0,14,�k��,2.7,57
2018/11/6,4:00:00,15,�k�k��,1.7,7.8,97.2,0,0,14,�k��,3.7,14
2018/11/6,5:00:00,13,���k��,2.3,6.2,94.6,0,0,14,�k��,4.4,13
2018/11/6,6:00:00,13,���k��,1.1,4.7,99.6,0,0,13,���k��,3.3,18
2018/11/6,7:00:00,14,�k��,2.6,6.5,99.4,0,0.05,14,�k��,4.6,45
2018/11/6,8:00:00,14,�k��,2.5,8,94.6,0,0.17,14,�k��,4.6,29
2018/11/6,9:00:00,14,�k��,1.8,10.5,89.4,0,0.3,14,�k��,3.3,58
2018/11/6,10:00:00,13,���k��,1.4,12.7,83,0,0.44,15,�k�k��,3.6,20
2018/11/6,11:00:00,9,��쐼,0.8,15.1,69,0,0.57,5,���쓌,3.6,46
2018/11/6,12:00:00,5,���쓌,2.5,14.2,73.8,0,0.54,5,���쓌,3.4,40
2018/11/6,13:00:00,6,�쓌,2.3,13.2,78.3,0,0.41,6,�쓌,3.6,51
2018/11/6,14:00:00,8,��,2.5,12.1,84.6,0,0.24,7,��쓌,4.5,43
2018/11/6,15:00:00,8,��,0.9,11.7,86.5,0,0.17,8,��,3.9,8
2018/11/6,16:00:00,16,�k,0.9,10.3,92.4,0,0.05,15,�k�k��,1.5,56
2018/11/6,17:00:00,11,���쐼,1.2,8.3,95.1,0,0,11,���쐼,2.1,52
2018/11/6,18:00:00,11,���쐼,1,8.2,98,0,0,12,��,1.7,33
2018/11/6,19:00:00,14,�k��,1.7,8.4,99.1,0,0,14,�k��,2.5,57
2018/11/6,20:00:00,16,�É�,0.2,7,98.8,0,0,14,�k��,2.5,1
2018/11/6,21:00:00,14,�k��,1.8,7.7,100,0,0,14,�k��,3.4,49
2018/11/6,22:00:00,14,�k��,1.8,5.7,99.1,0,0,14,�k��,3.7,1
2018/11/6,23:00:00,14,�k��,1.4,5.5,99.4,0,0,15,�k�k��,2.8,7
2018/11/6,0:00:00,14,�k��,1.4,4.6,100,0,0,14,�k��,2.8,49
2018/11/7,1:00:00,13,���k��,0.4,4.7,97.1,0,0,14,�k��,2.6,22
2018/11/7,2:00:00,14,�k��,1.6,4.1,98.2,0,0,14,�k��,2.1,52
2018/11/7,3:00:00,14,�k��,0.8,3.8,99.1,0,0,14,�k��,1.7,7
2018/11/7,4:00:00,12,��,1.4,2,99.1,0,0,13,���k��,2.4,50
2018/11/7,5:00:00,12,��,1.7,3.5,100,0,0,12,��,2.1,56
2018/11/7,6:00:00,14,�k��,0.8,2.2,100,0,0,12,��,2.5,33
2018/11/7,7:00:00,13,���k��,1.7,3.3,100,0,0.03,13,���k��,2.6,57
2018/11/7,8:00:00,14,�k��,1.5,7.4,77.7,0,0.11,13,���k��,4.1,36
2018/11/7,9:00:00,13,���k��,0.8,8.9,74.3,0,0.11,14,�k��,3.2,5
2018/11/7,10:00:00,14,�k��,1.6,9.3,63.7,0,0.14,14,�k��,4.5,22
2018/11/7,11:00:00,14,�k��,1.4,10.5,62.4,0,0.27,14,�k��,3.3,11
2018/11/7,12:00:00,5,���쓌,2.7,9.6,67.4,0,0.18,6,�쓌,3.6,52
2018/11/7,13:00:00,6,�쓌,2.5,9.4,75.9,0,0.1,5,���쓌,4.1,19
2018/11/7,14:00:00,6,�쓌,1.4,9.7,75.8,0,0.14,6,�쓌,3.7,32
2018/11/7,15:00:00,5,���쓌,1.7,9.6,72.4,0,0.1,6,�쓌,2.9,47
2018/11/7,16:00:00,6,�쓌,1.2,9,74,0,0.02,5,���쓌,2.9,5
2018/11/7,17:00:00,6,�쓌,1.3,9.1,72,0,0,6,�쓌,3,7
2018/11/7,18:00:00,7,��쓌,0.6,8.6,74.8,0,0,6,�쓌,2.4,13
2018/11/7,19:00:00,13,���k��,0.4,6.8,91.8,0,0,14,�k��,2.9,48
2018/11/7,20:00:00,16,�É�,0.1,6.8,91,0,0,6,�쓌,2.5,0
2018/11/7,21:00:00,2,�k��,0.4,6.9,89,0,0,5,���쓌,3.6,32
2018/11/7,22:00:00,12,��,1,7.5,87.7,0,0,4,��,3,59
2018/11/7,23:00:00,15,�k�k��,2,7.4,93.3,0,0,15,�k�k��,3.5,58
2018/11/7,0:00:00,2,�k��,2.1,6.8,93.9,3.5,0,15,�k�k��,3.7,17
2018/11/8,1:00:00,1,�k�k��,1.7,6,95.3,0.5,0,2,�k��,2.6,41
2018/11/8,2:00:00,2,�k��,2.1,5.5,94.7,0,0,1,�k�k��,3.3,46
2018/11/8,3:00:00,15,�k�k��,1,5.6,95.4,0,0,1,�k�k��,3.2,15
2018/11/8,4:00:00,1,�k�k��,2,5.6,94.4,0.5,0,1,�k�k��,3.6,56
2018/11/8,5:00:00,15,�k�k��,1.4,5.6,95.2,0,0,1,�k�k��,3.4,11
2018/11/8,6:00:00,15,�k�k��,2,5.6,94.9,0.5,0,14,�k��,3.6,51
2018/11/8,7:00:00,14,�k��,2.4,5.3,95,0,0,14,�k��,4.1,56
2018/11/8,8:00:00,15,�k�k��,1.7,5.7,94.4,0,0.04,14,�k��,4.7,35
2018/11/8,9:00:00,14,�k��,2.3,6,93.6,0,0.05,15,�k�k��,3.7,53
2018/11/8,10:00:00,14,�k��,2.5,6.1,94.7,0,0.05,13,���k��,4,59
2018/11/8,11:00:00,15,�k�k��,1.5,6.5,97,0,0.06,15,�k�k��,4.2,8
2018/11/8,12:00:00,14,�k��,1.2,7.2,96.9,0,0.1,15,�k�k��,3.3,10
2018/11/8,13:00:00,14,�k��,1.3,7.6,95.5,0,0.08,14,�k��,2.7,45
2018/11/8,14:00:00,15,�k�k��,0.8,7.7,94,0,0.05,14,�k��,2.4,17
2018/11/8,15:00:00,13,���k��,1.4,7.6,94.5,0,0.03,13,���k��,2.6,25
2018/11/8,16:00:00,13,���k��,2,7.3,96.3,0,0.01,13,���k��,3.1,35
2018/11/8,17:00:00,14,�k��,1.3,7.1,97.2,0,0,14,�k��,3.3,1
2018/11/8,18:00:00,14,�k��,1,7,97,0,0,14,�k��,3.6,29
2018/11/8,19:00:00,13,���k��,2.5,7.2,97.9,0,0,14,�k��,3.5,59
2018/11/8,20:00:00,13,���k��,1.8,6.9,98.1,0,0,13,���k��,3.4,9
2018/11/8,21:00:00,13,���k��,1.4,6.9,98,0,0,13,���k��,3.1,18
2018/11/8,22:00:00,13,���k��,1,6.9,97.3,0,0,12,��,2.6,9
2018/11/8,23:00:00,13,���k��,1.7,6.9,96.5,0,0,14,�k��,2.8,28
2018/11/8,0:00:00,13,���k��,1.4,6.8,96.4,0,0,13,���k��,3.6,7
2018/11/9,1:00:00,13,���k��,1.3,6.6,97.9,0,0,13,���k��,2.3,53
2018/11/9,2:00:00,13,���k��,1.5,6.5,98.3,0,0,13,���k��,2.6,44
2018/11/9,3:00:00,13,���k��,1.9,6.6,97.5,0,0,13,���k��,2.4,56
2018/11/9,4:00:00,13,���k��,1.4,6.7,96,0,0,13,���k��,2.7,16
2018/11/9,5:00:00,6.2,�쓌,97,0,0,,,,,,
2018/11/9,6:00:00,16,�É�,0.2,5.7,98.1,0,0,13,���k��,2.7,15
2018/11/9,7:00:00,8,��,0.5,7.2,98.2,0,0.02,1,�k�k��,2.5,37
2018/11/9,8:00:00,6,�쓌,3.2,10.2,73.9,0,0.08,5,���쓌,5.8,57
2018/11/9,9:00:00,6,�쓌,2.5,9.8,74.6,0,0.11,6,�쓌,6.3,16
2018/11/9,10:00:00,6,�쓌,2.6,10.2,73.6,0,0.13,5,���쓌,5.3,49
2018/11/9,11:00:00,6,�쓌,4,10.2,73.8,0,0.14,5,���쓌,5.8,40
2018/11/9,12:00:00,5,���쓌,2.5,9.5,81.6,0,0.11,6,�쓌,6.2,9
2018/11/9,13:00:00,6,�쓌,1.3,9.9,81.2,0,0.07,5,���쓌,3.4,29
2018/11/9,14:00:00,14,�k��,0.8,9.5,93,0.5,0.09,6,�쓌,2.2,1
2018/11/9,15:00:00,10,�쐼,0.5,8.7,94.5,0,0.03,15,�k�k��,7.4,17
2018/11/9,16:00:00,13,���k��,2.9,8,96.5,0.5,0.01,14,�k��,5.4,30
2018/11/9,17:00:00,14,�k��,2.5,7.7,98.1,0.5,0,14,�k��,4,49
2018/11/9,18:00:00,14,�k��,2.6,7.7,98.8,1.5,0,14,�k��,4.8,50
2018/11/9,19:00:00,13,���k��,2.8,7.6,98.9,1.5,0,14,�k��,5.4,27
2018/11/9,20:00:00,7.8,��쓌,99.4,1.5,0,,,,,,
2018/11/9,21:00:00,13,���k��,3.1,7.9,99.5,2,0,14,�k��,4.9,52
2018/11/9,22:00:00,14,�k��,1.3,8.5,99.6,3.5,0,13,���k��,4.7,7
2018/11/9,23:00:00,14,�k��,0.7,8.6,99.7,1,0,14,�k��,4.5,38
2018/11/9,0:00:00,12,��,0.3,9.1,99.9,1.5,0,14,�k��,2.5,26
2018/11/10,1:00:00,10,�쐼,1,11.8,100,1.5,0,8,��,6.5,30
2018/11/10,2:00:00,8,��,1.2,12,100,4,0,11,���쐼,6,3
2018/11/10,3:00:00,3,���k��,1.2,10.4,99.9,6,0,13,���k��,5.5,35
2018/11/10,4:00:00,12,��,0.9,10,99.9,3.5,0,4,��,2.7,1
2018/11/10,5:00:00,13,���k��,0.8,9.9,100,3,0,15,�k�k��,2.6,39
2018/11/10,6:00:00,14,�k��,2.4,9.8,100,1,0,14,�k��,3.7,48
2018/11/10,7:00:00,14,�k��,2.5,9.8,100,0.5,0.01,13,���k��,4.1,55
2018/11/10,8:00:00,15,�k�k��,2.9,10.2,100,0.5,0.04,15,�k�k��,5.5,42
2018/11/10,9:00:00,14,�k��,2.8,10.6,99.6,1,0.07,14,�k��,4.9,51
2018/11/10,10:00:00,14,�k��,2.4,11.1,98.3,0.5,0.13,14,�k��,5.3,41
2018/11/10,11:00:00,14,�k��,2.1,12.3,95.7,0.5,0.18,14,�k��,3.7,4
2018/11/10,12:00:00,14,�k��,0.4,13.3,91.9,0,0.32,13,���k��,3.3,13
2018/11/10,13:00:00,5,���쓌,1.7,13.9,91.7,0,0.28,5,���쓌,2.8,55
2018/11/10,14:00:00,7,��쓌,1,13.2,93.4,0,0.14,6,�쓌,2.9,14
2018/11/10,15:00:00,8,��,1,13.6,93.5,0,0.14,10,�쐼,2.5,24
2018/11/10,16:00:00,9,��쐼,2.2,11.4,94.1,0,0.08,10,�쐼,3.4,46
2018/11/10,17:00:00,3,���k��,0.6,9.9,99.3,0,0,2,�k��,4.2,35
2018/11/10,18:00:00,16,�É�,0.2,7,99.1,0,0,1,�k�k��,2.9,30
2018/11/10,19:00:00,13,���k��,0.8,6.1,100,0,0,15,�k�k��,2.6,10
2018/11/10,20:00:00,14,�k��,1.9,7.8,100,0,0,13,���k��,2.8,25
2018/11/10,21:00:00,13,���k��,1.8,4.2,100,0,0,10,�쐼,7.5,17
2018/11/10,22:00:00,13,���k��,2.3,6,100,0,0,13,���k��,3.1,54
2018/11/10,23:00:00,14,�k��,1.9,6.3,100,0,0,14,�k��,3.3,52
2018/11/10,0:00:00,14,�k��,1.9,5.7,95.8,0,0,14,�k��,4.4,8
2018/11/11,1:00:00,14,�k��,2.3,6.1,84.6,0,0,15,�k�k��,3.9,49
2018/11/11,2:00:00,12,��,2.3,1.9,93.9,0,0,14,�k��,3.6,7
2018/11/11,3:00:00,13,���k��,1.9,2.9,95.7,0,0,14,�k��,2.8,15
2018/11/11,4:00:00,14,�k��,2.3,1.3,96.9,0,0,14,�k��,3.4,46
2018/11/11,5:00:00,13,���k��,2.7,0.9,97.6,0,0,13,���k��,4,15
2018/11/11,6:00:00,13,���k��,3,0.6,97.1,0,0,12,��,4.3,46
2018/11/11,7:00:00,13,���k��,2.2,1.7,93.8,0,0.05,13,���k��,4.4,21
2018/11/11,8:00:00,13,���k��,1.6,5.8,87.1,0,0.22,13,���k��,2.9,3
2018/11/11,9:00:00,13,���k��,1.1,9.8,78.6,0,0.39,12,��,2.3,8
2018/11/11,10:00:00,10,�쐼,0.7,11.5,59.1,0,0.51,4,��,2.7,22
2018/11/11,11:00:00,13,���k��,1,13.1,54.7,0,0.58,14,�k��,3.6,40
2018/11/11,12:00:00,5,���쓌,1.2,14.3,52.1,0,0.59,13,���k��,3.5,8
2018/11/11,13:00:00,12,��,7.3,13,43.9,0,0.58,11,���쐼,11.4,51
2018/11/11,14:00:00,12,��,4.4,12.9,47.8,0,0.45,12,��,8,32
2018/11/11,15:00:00,11,���쐼,4.4,10.9,57.3,0,0.24,13,���k��,9.7,8
2018/11/11,16:00:00,11,���쐼,2.6,9.6,64.4,0,0.05,12,��,6.2,0
2018/11/11,17:00:00,2,�k��,1.4,7.4,75.6,0,0,12,��,4.6,9
2018/11/11,18:00:00,14,�k��,0.9,2.7,86,0,0,2,�k��,2.8,3
2018/11/11,19:00:00,10,�쐼,0.8,3.1,96.6,0,0,13,���k��,1.9,43
2018/11/11,20:00:00,0.9,�k,96,0,0,,,,,,
2018/11/11,21:00:00,12,��,1.2,0.7,98.3,0,0,13,���k��,2.4,35
2018/11/11,22:00:00,13,���k��,1.9,-0.5,99.6,0,0,13,���k��,2.5,57
2018/11/11,23:00:00,13,���k��,2.5,-1.2,99,0,0,12,��,2.8,56
2018/11/11,0:00:00,13,���k��,2.3,-1.2,99.8,0,0,12,��,3.1,47
2018/11/12,1:00:00,14,�k��,2.2,-0.9,99.2,0,0,14,�k��,3.3,59
2018/11/12,2:00:00,14,�k��,1.2,0.9,97,0,0,14,�k��,3.5,24
2018/11/12,3:00:00,13,���k��,1.6,0.8,97.1,0,0,11,���쐼,2.1,6
2018/11/12,4:00:00,13,���k��,2.1,2,96.2,0,0,13,���k��,2.8,52
2018/11/12,5:00:00,12,��,1.3,1.3,97.6,0,0,14,�k��,2.8,0
2018/11/12,6:00:00,14,�k��,1.3,1.5,99,0,0,12,��,2.8,21
2018/11/12,7:00:00,13,���k��,0.5,3,97.7,0,0.03,14,�k��,2.5,25
2018/11/12,8:00:00,14,�k��,1.8,4.7,89.9,0,0.12,14,�k��,2.8,44
2018/11/12,9:00:00,15,�k�k��,0.3,7.3,81.8,0,0.29,14,�k��,2.4,55
2018/11/12,10:00:00,4,��,1.5,10.6,67.9,0,0.34,4,��,2.8,56
2018/11/12,11:00:00,5,���쓌,2.4,11,70.2,0,0.45,5,���쓌,4.1,57
2018/11/12,12:00:00,6,�쓌,2.5,10.7,70.5,0,0.59,5,���쓌,4.5,10
2018/11/12,13:00:00,5,���쓌,2.6,11.7,69.6,0,0.54,4,��,4.7,48
2018/11/12,14:00:00,5,���쓌,2,12.3,62.4,0,0.29,5,���쓌,4,9
2018/11/12,15:00:00,6,�쓌,1.3,11.8,63.7,0,0.28,6,�쓌,2.8,27
2018/11/12,16:00:00,14,�k��,0.4,6.7,83.4,0,0.06,7,��쓌,1.7,3
2018/11/12,17:00:00,14,�k��,0.4,6.9,83.7,0,0,13,���k��,2.9,36
2018/11/12,18:00:00,2,�k��,0.8,6.6,82.3,0,0,12,��,1.5,11
2018/11/12,19:00:00,14,�k��,1.2,4.8,91.3,0,0,14,�k��,1.7,58
2018/11/12,20:00:00,14,�k��,1.8,5.2,91.7,0,0,14,�k��,2.5,56
2018/11/12,21:00:00,13,���k��,1.7,5.6,85,0,0,14,�k��,4.2,31
2018/11/12,22:00:00,14,�k��,1.3,4.6,87.7,0,0,1,�k�k��,17.7,35
2018/11/12,23:00:00,13,���k��,1.3,0.3,95.4,0,0,14,�k��,2.5,36
2018/11/12,0:00:00,15,�k�k��,1,2.3,92.7,0,0,15,�k�k��,3.1,45
2018/11/13,1:00:00,11,���쐼,0.8,-1.1,97,0,0,15,�k�k��,2,21
2018/11/13,2:00:00,14,�k��,0.5,-1.3,97.7,0,0,13,���k��,2.9,30
2018/11/13,3:00:00,14,�k��,3.1,1.9,91.1,0,0,14,�k��,5.1,40
2018/11/13,4:00:00,13,���k��,3.5,2.2,88.8,0,0,14,�k��,5.5,40
2018/11/13,5:00:00,11,���쐼,0.8,0.7,94,0,0,14,�k��,4.8,0
2018/11/13,6:00:00,13,���k��,2.6,1.5,93,0,0,13,���k��,5.1,5
2018/11/13,7:00:00,13,���k��,1.2,1.1,94.9,0,0.05,14,�k��,3.4,2
2018/11/13,8:00:00,8,��,0.6,4.3,94.4,0,0.17,14,�k��,4.1,18
2018/11/13,9:00:00,14,�k��,2.4,6.9,75.1,0,0.39,15,�k�k��,4.2,55
2018/11/13,10:00:00,12,��,0.9,9.3,61.2,0,0.51,15,�k�k��,3.8,0
2018/11/13,11:00:00,14,�k��,1.7,11.7,53,0,0.58,13,���k��,4.6,29
2018/11/13,12:00:00,6,�쓌,3,11,53.5,0,0.59,5,���쓌,4.7,56
2018/11/13,13:00:00,6,�쓌,3.8,9.8,56,0,0.54,6,�쓌,5.4,56
2018/11/13,14:00:00,6,�쓌,2.5,10.2,58.8,0,0.44,6,�쓌,5,1
2018/11/13,15:00:00,7,��쓌,2,9.4,63.4,0,0.28,7,��쓌,4.1,12
2018/11/13,16:00:00,9,��쐼,0.8,7.3,71.1,0,0.09,7,��쓌,3,3
2018/11/13,17:00:00,12,��,1.6,2.4,90.8,0,0,12,��,2,58
2018/11/13,18:00:00,12,��,1.2,0.7,93.9,0,0,12,��,2.1,59
2018/11/13,19:00:00,13,���k��,1.1,0.3,97.6,0,0,12,��,2.9,4
2018/11/13,20:00:00,13,���k��,0.9,1.5,96.3,0,0,14,�k��,2.3,42
2018/11/13,21:00:00,14,�k��,2.3,3.1,90.3,0,0,14,�k��,4,45
2018/11/13,22:00:00,13,���k��,3,3.9,83.8,0,0,14,�k��,5.6,35
2018/11/13,23:00:00,14,�k��,1.4,3.8,83.8,0,0,13,���k��,4.3,7
2018/11/13,0:00:00,13,���k��,2.5,3,90.4,0,0,14,�k��,4.2,58
2018/11/14,1:00:00,14,�k��,2.8,2.6,90,0,0,13,���k��,4.8,4
2018/11/14,2:00:00,14,�k��,2.7,2.3,90.4,0,0,14,�k��,5.1,16
2018/11/14,3:00:00,14,�k��,2.5,1.7,90.7,0,0,14,�k��,4.9,37
2018/11/14,4:00:00,13,���k��,2.7,1.3,90.2,0,0,14,�k��,5.5,25
2018/11/14,5:00:00,13,���k��,3.3,0.9,89.9,0,0,14,�k��,5,59
2018/11/14,6:00:00,14,�k��,2.6,0.9,89.2,0,0,13,���k��,5.8,28
2018/11/14,7:00:00,13,���k��,2.6,0.7,91.4,0,0.02,13,���k��,5.1,28
2018/11/14,8:00:00,13,���k��,2.3,3.5,78.9,0,0.21,14,�k��,3.9,3
2018/11/14,9:00:00,13,���k��,1.7,7.2,71,0,0.39,14,�k��,3.1,27
2018/11/14,10:00:00,15,�k�k��,2.6,8.8,53.1,0,0.52,14,�k��,4.9,45
2018/11/14,11:00:00,14,�k��,3.5,9.9,46.8,0,0.58,15,�k�k��,7.6,53
2018/11/14,12:00:00,15,�k�k��,3.1,10.7,38.5,0,0.59,14,�k��,8.1,24
2018/11/14,13:00:00,16,�k,3.4,11.3,40.7,0,0.54,15,�k�k��,6.8,0
2018/11/14,14:00:00,16,�k,3.3,10.4,41.7,0,0.42,1,�k�k��,7.6,36
2018/11/14,15:00:00,16,�k,3.4,10.5,43,0,0.32,16,�k,6.8,2
2018/11/14,16:00:00,16,�k,2.4,7.9,50.7,0,0.12,14,�k��,7.1,29
2018/11/14,17:00:00,15,�k�k��,1.8,5.9,57,0,0,16,�k,4.7,56
2018/11/14,18:00:00,12,��,2.7,4.8,67.7,0,0,12,��,3.8,57
2018/11/14,19:00:00,11,���쐼,1.2,3.9,72.5,0,0,12,��,5.7,5
2018/11/14,20:00:00,15,�k�k��,2.5,6.2,51.1,0,0,15,�k�k��,5.2,10
2018/11/14,21:00:00,16,�k,2.5,5.8,48.8,0,0,14,�k��,6.8,6
2018/11/14,22:00:00,1,�k�k��,3.3,5.2,53.9,0,0,16,�k,6.7,19
2018/11/14,23:00:00,16,�k,3.6,4.9,56,0,0,16,�k,7.4,56
2018/11/14,0:00:00,16,�k,3,3.9,59.1,0,0,16,�k,5.9,28
2018/11/15,1:00:00,15,�k�k��,2.2,3.6,59,0,0,15,�k�k��,5.6,43
2018/11/15,2:00:00,15,�k�k��,1.5,1.1,68.7,0,0,16,�k,4,1
2018/11/15,3:00:00,14,�k��,2.8,1.2,71.6,0,0,15,�k�k��,5,52
2018/11/15,4:00:00,14,�k��,2.6,-0.5,74.7,0,0,14,�k��,4.2,54
2018/11/15,5:00:00,13,���k��,2.4,-2.6,85.4,0,0,13,���k��,3.5,48
2018/11/15,6:00:00,14,�k��,1.1,-4.4,91.6,0,0,13,���k��,2.9,1
2018/11/15,7:00:00,12,��,2.6,-2.7,88.5,0,0.04,13,���k��,4.2,14
2018/11/15,8:00:00,14,�k��,2.1,3.5,69.2,0,0.21,13,���k��,3.6,42
2018/11/15,9:00:00,13,���k��,1.8,6.7,52.4,0,0.38,14,�k��,3.3,28
2018/11/15,10:00:00,15,�k�k��,2.9,8.8,45.6,0,0.51,13,���k��,7.6,0
2018/11/15,11:00:00,14,�k��,5.3,9.9,39.7,0,0.57,14,�k��,9.8,56
2018/11/15,12:00:00,15,�k�k��,5.2,10.6,38.5,0,0.58,14,�k��,10.6,36
2018/11/15,13:00:00,15,�k�k��,3.8,10.9,41.4,0,0.54,15,�k�k��,12.3,3
2018/11/15,14:00:00,15,�k�k��,2.8,10.9,43.5,0,0.43,15,�k�k��,9,5
2018/11/15,15:00:00,15,�k�k��,2.5,9.2,49.8,0,0.27,14,�k��,8.6,12
2018/11/15,16:00:00,15,�k�k��,1.8,7.2,56.6,0,0.09,15,�k�k��,7.7,11
2018/11/15,17:00:00,14,�k��,2.2,5.8,62.5,0,0,13,���k��,5.5,35
2018/11/15,18:00:00,13,���k��,2.8,3.9,70.8,0,0,15,�k�k��,6.6,21
2018/11/15,19:00:00,9,��쐼,0.8,0.2,78.6,0,0,13,���k��,4.1,4
2018/11/15,20:00:00,12,��,1.8,-0.3,84.6,0,0,13,���k��,4.1,31
2018/11/15,21:00:00,14,�k��,0.5,-2.7,92,0,0,14,�k��,3.1,12
2018/11/15,22:00:00,12,��,2.2,-3.1,95.6,0,0,11,���쐼,2.5,46
2018/11/15,23:00:00,13,���k��,2.1,-2.9,96.6,0,0,13,���k��,2.9,39
2018/11/15,0:00:00,13,���k��,1.8,-3.1,97.1,0,0,13,���k��,2.9,52
2018/11/16,1:00:00,13,���k��,2.6,-3.8,97.4,0,0,13,���k��,3,53
2018/11/16,2:00:00,13,���k��,1.7,-4,96.9,0,0,13,���k��,3.1,28
2018/11/16,3:00:00,14,�k��,1.3,-3.6,97.3,0,0,13,���k��,3.1,25
2018/11/16,4:00:00,13,���k��,1.6,-3.7,96.3,0,0,14,�k��,3,19
2018/11/16,5:00:00,13,���k��,1.1,-3.6,96.2,0,0,13,���k��,2.9,29
2018/11/16,6:00:00,13,���k��,1.6,-4.3,95.9,0,0,13,���k��,3.1,22
2018/11/16,7:00:00,12,��,1.2,-3.8,95.8,0,0.04,13,���k��,3.3,18
2018/11/16,8:00:00,15,�k�k��,1.4,1.2,88.6,0,0.22,13,���k��,4,32
2018/11/16,9:00:00,12,��,1.4,5.4,70.9,0,0.39,13,���k��,3.6,11
2018/11/16,10:00:00,7,��쓌,1.7,8.7,68.3,0,0.5,8,��,2.9,52
2018/11/16,11:00:00,6,�쓌,1.8,9.2,68.7,0,0.56,5,���쓌,4.1,40
2018/11/16,12:00:00,4,��,3.1,10.4,71.2,0,0.57,4,��,4.6,53
2018/11/16,13:00:00,2,�k��,1.9,11.2,73.2,0,0.5,3,���k��,4.1,17
2018/11/16,14:00:00,5,���쓌,1.4,11.5,69.7,0,0.33,5,���쓌,3.1,17
2018/11/16,15:00:00,2,�k��,1.6,9.5,78.7,0,0.11,6,�쓌,2.9,4
2018/11/16,16:00:00,2,�k��,1.8,7.5,83.7,0,0.02,3,���k��,2.7,59
2018/11/16,17:00:00,14,�k��,0.4,5.1,89.4,0,0,2,�k��,3,1
2018/11/16,18:00:00,16,�k,0.9,4.8,90.7,0,0,13,���k��,3,11
2018/11/16,19:00:00,14,�k��,0.7,4.7,94.4,0,0,16,�k,2.5,4
2018/11/16,20:00:00,7,��쓌,0.8,7.9,87.2,0,0,7,��쓌,2.8,56
2018/11/16,21:00:00,12,��,1.7,7.7,80.1,0,0,10,�쐼,4.3,44
2018/11/16,22:00:00,11,���쐼,2.5,10,71.3,0,0,11,���쐼,4.6,56
2018/11/16,23:00:00,9,��쐼,3.9,10,74.5,0,0,11,���쐼,7.1,44
2018/11/16,0:00:00,9,��쐼,3.6,10.7,77.1,0,0,10,�쐼,7.4,27
2018/11/17,1:00:00,9,��쐼,2.9,9.1,93.6,2,0,12,��,6.3,30
2018/11/17,2:00:00,11,���쐼,2.6,8.4,90.1,0.5,0,10,�쐼,5.4,19
2018/11/17,3:00:00,14,�k��,1.9,7.9,93.4,0,0,10,�쐼,4.4,15
2018/11/17,4:00:00,14,�k��,1.6,6.2,91.6,0,0,14,�k��,4.1,3
2018/11/17,5:00:00,15,�k�k��,2,5.6,90.8,0,0,15,�k�k��,3.8,42
2018/11/17,6:00:00,13,���k��,0.4,5.6,88.6,0,0,12,��,4.5,50
2018/11/17,7:00:00,14,�k��,1.2,5.3,88,0,0.01,15,�k�k��,3.4,28
2018/11/17,8:00:00,11,���쐼,0.9,5.9,88.3,0,0.07,14,�k��,2.3,6
2018/11/17,9:00:00,14,�k��,1.4,7.3,81.2,0,0.16,15,�k�k��,2.8,54
2018/11/17,10:00:00,14,�k��,1.3,9.4,71.6,0,0.5,16,�k,4.3,30